Location: Armidale
(30.5016°S, 151.6662°E)
Time: 06:26:51
(UTC+10:00)

Envisat - Pass Details

Date: 02 July 2022
Orbit: 763 x 765 km, 98.2° (Epoch: 09 August)

Event Time Altitude Azimuth Distance (km) Brightness Sun altitude
Rises 17:42:01 0° 194° (SSW) 3,258 6.2 -8.4°
Reaches altitude 10° 17:45:44 10° 221° (SW) 2,322 5.8 -9.1°
Maximum altitude 17:47:49 13° 246° (WSW) 2,143 6.0 -9.5°
Drops below altitude 10° 17:49:54 10° 270° (W) 2,312 6.8 -9.9°
Sets 17:53:36 0° 298° (WNW) 3,228 8.3 -10.7°
